Tracking 28779 objects as of 14-Apr-2024
HD Live streaming from Space Station
objects crossing your sky now

YAOGAN-39 02C

Track YAOGAN-39 02C now!
10-day predictions


NORAD ID: 57890
Int'l Code: 2023-145E
Perigee: 499.4 km
Apogee: 507.4 km
Inclination: 35.0 °
Period: 94.5 minutes
Semi major axis: 6874 km
RCS: Unknown
Launch date: September 17, 2023
Source: People's Republic of China (PRC)
Launch site: Xichang Space Center, China (XSC)
Your satellite tracking list
Your tracking list is empty




NASA's NSSDC Master Catalog

Two Line Element Set (TLE):
1 57890U 23145E   24105.17847922  .00014602  00000-0  60314-3 0  9996
2 57890  34.9932 153.8833 0005807 347.1676  12.8890 15.23172191 31987
Source of the keplerian elements: AFSPC